Location: Canet
(43.3261°N, 5.3723°E)
Time: 18:41:52
(UTC+00:00)

Aureole 3 - Pass Details

Date: 24 January 2021
Orbit: 381 x 1231 km, 82.5° (Epoch: 02 March)

Event Time Altitude Azimuth Distance (km) Brightness Sun altitude
Rises 17:12:17 0° 2° (N) 2,483 6.4 -6.3°
Reaches altitude 10° 17:14:42 10° 16° (NNE) 1,518 5.2 -6.7°
Maximum altitude 17:17:24 24° 74° (ENE) 862 3.7 -7.1°
Drops below altitude 10° 17:19:55 10° 132° (SE) 1,404 5.1 -7.6°
Sets 17:22:04 0° 147° (SSE) 2,248 6.3 -7.9°
